Time,TemperatureF,DewpointF,PressureIn,WindDirection,WindDirectionDegrees,WindSpeedMPH,WindSpeedGustMPH,Humidity,HourlyPrecipIn,Conditions,Clouds,dailyrainin,SoftwareType,DateUTC
2013-04-06 00:02:00,36.0,20.0,-100.00,NNW,335,10.0,25.0,52,-99.99,,,-99.99,,2013-04-06 06:02:00,
2013-04-06 00:12:00,35.0,21.0,-100.00,NNW,330,10.0,19.0,54,-99.99,,,-99.99,,2013-04-06 06:12:00,
2013-04-06 00:22:00,35.0,20.0,-100.00,WNW,300,12.0,23.0,53,-99.99,,,-99.99,,2013-04-06 06:22:00,
2013-04-06 00:32:00,35.0,20.0,-100.00,WNW,300,12.0,23.0,53,-99.99,,,-99.99,,2013-04-06 06:32:00,
2013-04-06 00:42:00,35.0,20.0,-100.00,WNW,300,12.0,23.0,53,-99.99,,,-99.99,,2013-04-06 06:42:00,
2013-04-06 00:50:00,34.0,20.0,-100.00,WSW,240,7.0,12.0,55,-99.99,,,-99.99,,2013-04-06 06:50:00,
2013-04-06 00:52:00,34.0,21.0,-100.00,ENE,70,2.0,17.0,56,-99.99,,,-99.99,,2013-04-06 06:52:00,
2013-04-06 01:03:00,34.0,20.0,-100.00,WSW,240,7.0,12.0,55,-99.99,,,-99.99,,2013-04-06 07:03:00,
2013-04-06 01:12:00,34.0,20.0,-100.00,WSW,240,7.0,12.0,55,-99.99,,,-99.99,,2013-04-06 07:12:00,
2013-04-06 01:22:00,34.0,20.0,-100.00,WSW,240,7.0,12.0,55,-99.99,,,-99.99,,2013-04-06 07:22:00,
2013-04-06 01:33:00,34.0,20.0,-100.00,WSW,240,7.0,12.0,55,-99.99,,,-99.99,,2013-04-06 07:33:00,
2013-04-06 01:43:00,34.0,20.0,-100.00,WSW,240,7.0,12.0,55,-99.99,,,-99.99,,2013-04-06 07:43:00,
2013-04-06 02:52:00,33.0,16.0,-100.00,WNW,295,10.0,21.0,48,-99.99,,,-99.99,,2013-04-06 08:52:00,
2013-04-06 03:02:00,34.0,15.0,-100.00,NW,325,11.0,23.0,46,-99.99,,,-99.99,,2013-04-06 09:02:00,
2013-04-06 03:12:00,33.0,15.0,-100.00,WSW,245,3.0,18.0,47,-99.99,,,-99.99,,2013-04-06 09:12:00,
2013-04-06 03:22:00,32.0,16.0,-100.00,East,85,4.0,11.0,49,-99.99,,,-99.99,,2013-04-06 09:22:00,
2013-04-06 03:32:00,32.0,15.0,-100.00,ENE,65,7.0,16.0,49,-99.99,,,-99.99,,2013-04-06 09:32:00,
2013-04-06 03:42:00,32.0,15.0,-100.00,NE,55,8.0,19.0,49,-99.99,,,-99.99,,2013-04-06 09:42:00,
2013-04-06 03:52:00,33.0,15.0,-100.00,East,100,4.0,22.0,48,-99.99,,,-99.99,,2013-04-06 09:52:00,
2013-04-06 04:03:00,32.0,15.0,-100.00,North,5,7.0,20.0,48,-99.99,,,-99.99,,2013-04-06 10:03:00,
2013-04-06 04:13:00,32.0,15.0,-100.00,North,5,7.0,20.0,48,-99.99,,,-99.99,,2013-04-06 10:13:00,
2013-04-06 04:22:00,32.0,15.0,-100.00,North,5,7.0,20.0,48,-99.99,,,-99.99,,2013-04-06 10:22:00,
2013-04-06 04:33:00,32.0,15.0,-100.00,North,5,7.0,20.0,48,-99.99,,,-99.99,,2013-04-06 10:33:00,
2013-04-06 04:42:00,32.0,15.0,-100.00,North,5,7.0,20.0,48,-99.99,,,-99.99,,2013-04-06 10:42:00,
2013-04-06 04:52:00,31.0,15.0,-100.00,NE,55,4.0,10.0,51,-99.99,,,-99.99,,2013-04-06 10:52:00,
2013-04-06 05:02:00,31.0,14.0,-100.00,East,100,6.0,13.0,50,-99.99,,,-99.99,,2013-04-06 11:02:00,
2013-04-06 05:12:00,31.0,15.0,-100.00,NNW,340,9.0,17.0,49,-99.99,,,-99.99,,2013-04-06 11:12:00,
2013-04-06 05:23:00,33.0,14.0,-100.00,North,0,6.0,17.0,45,-99.99,,,-99.99,,2013-04-06 11:23:00,
2013-04-06 05:33:00,33.0,15.0,-100.00,NNW,340,9.0,19.0,46,-99.99,,,-99.99,,2013-04-06 11:33:00,
2013-04-06 05:42:00,33.0,15.0,-100.00,NW,315,8.0,22.0,47,-99.99,,,-99.99,,2013-04-06 11:42:00,
2013-04-06 05:52:00,32.0,15.0,-100.00,NW,325,9.0,32.0,48,-99.99,,,-99.99,,2013-04-06 11:52:00,
2013-04-06 06:02:00,32.0,15.0,-100.00,SW,225,8.0,24.0,48,-99.99,,,-99.99,,2013-04-06 12:02:00,
2013-04-06 06:12:00,33.0,15.0,-100.00,SW,215,11.0,23.0,47,-99.99,,,-99.99,,2013-04-06 12:12:00,
2013-04-06 06:22:00,32.0,15.0,-100.00,SW,220,14.0,25.0,48,-99.99,,,-99.99,,2013-04-06 12:22:00,
2013-04-06 06:32:00,32.0,16.0,-100.00,SSW,210,11.0,25.0,50,-99.99,,,-99.99,,2013-04-06 12:32:00,
2013-04-06 06:43:00,32.0,16.0,-100.00,WNW,290,7.0,21.0,50,-99.99,,,-99.99,,2013-04-06 12:43:00,
2013-04-06 06:52:00,31.0,16.0,-100.00,SW,215,5.0,16.0,51,-99.99,,,-99.99,,2013-04-06 12:52:00,
2013-04-06 07:02:00,31.0,16.0,-100.00,WNW,290,5.0,17.0,51,-99.99,,,-99.99,,2013-04-06 13:02:00,
2013-04-06 07:12:00,32.0,15.0,-100.00,West,275,7.0,24.0,48,-99.99,,,-99.99,,2013-04-06 13:12:00,
2013-04-06 07:23:00,32.0,16.0,-100.00,WNW,300,6.0,14.0,49,-99.99,,,-99.99,,2013-04-06 13:23:00,
2013-04-06 07:32:00,32.0,16.0,-100.00,West,280,7.0,12.0,51,-99.99,,,-99.99,,2013-04-06 13:32:00,
2013-04-06 07:42:00,33.0,16.0,-100.00,NW,320,9.0,22.0,49,-99.99,,,-99.99,,2013-04-06 13:42:00,
2013-04-06 07:52:00,33.0,16.0,-100.00,NW,305,7.0,21.0,49,-99.99,,,-99.99,,2013-04-06 13:52:00,
2013-04-06 08:03:00,33.0,16.0,-100.00,West,275,7.0,21.0,47,-99.99,,,-99.99,,2013-04-06 14:03:00,
2013-04-06 08:12:00,34.0,16.0,-100.00,WNW,300,9.0,22.0,47,-99.99,,,-99.99,,2013-04-06 14:12:00,
2013-04-06 08:22:00,34.0,16.0,-100.00,NW,310,11.0,23.0,47,-99.99,,,-99.99,,2013-04-06 14:22:00,
2013-04-06 08:32:00,34.0,16.0,-100.00,NW,320,8.0,21.0,47,-99.99,,,-99.99,,2013-04-06 14:32:00,
2013-04-06 08:42:00,34.0,16.0,-100.00,NW,320,9.0,24.0,47,-99.99,,,-99.99,,2013-04-06 14:42:00,
2013-04-06 08:52:00,34.0,17.0,-100.00,NW,320,12.0,21.0,48,-99.99,,,-99.99,,2013-04-06 14:52:00,
2013-04-06 09:02:00,34.0,17.0,-100.00,NW,320,10.0,22.0,47,-99.99,,,-99.99,,2013-04-06 15:02:00,
2013-04-06 09:12:00,34.0,16.0,-100.00,NW,305,11.0,21.0,47,-99.99,,,-99.99,,2013-04-06 15:12:00,
2013-04-06 09:22:00,34.0,16.0,-100.00,NNW,335,6.0,17.0,47,-99.99,,,-99.99,,2013-04-06 15:22:00,
2013-04-06 09:33:00,35.0,17.0,-100.00,West,280,7.0,17.0,46,-99.99,,,-99.99,,2013-04-06 15:33:00,
2013-04-06 09:43:00,37.0,17.0,-100.00,West,280,6.0,21.0,44,-99.99,,,-99.99,,2013-04-06 15:43:00,
2013-04-06 09:52:00,37.0,17.0,-100.00,West,275,11.0,22.0,43,-99.99,,,-99.99,,2013-04-06 15:52:00,
2013-04-06 10:04:00,37.0,17.0,-100.00,WNW,295,11.0,19.0,43,-99.99,,,-99.99,,2013-04-06 16:04:00,
2013-04-06 10:17:00,36.0,16.0,-100.00,NNW,330,16.0,27.0,43,-99.99,,,-99.99,,2013-04-06 16:17:00,
2013-04-06 10:23:00,36.0,16.0,-100.00,NNW,330,12.0,22.0,43,-99.99,,,-99.99,,2013-04-06 16:23:00,
2013-04-06 10:32:00,36.0,17.0,-100.00,NW,310,7.0,28.0,44,-99.99,,,-99.99,,2013-04-06 16:32:00,
2013-04-06 10:42:00,37.0,18.0,-100.00,North,10,6.0,19.0,44,-99.99,,,-99.99,,2013-04-06 16:42:00,
2013-04-06 10:52:00,38.0,18.0,-100.00,NW,310,9.0,22.0,44,-99.99,,,-99.99,,2013-04-06 16:52:00,
2013-04-06 11:02:00,37.0,18.0,-100.00,WNW,295,9.0,25.0,44,-99.99,,,-99.99,,2013-04-06 17:02:00,
2013-04-06 11:12:00,39.0,19.0,-100.00,WNW,285,9.0,17.0,44,-99.99,,,-99.99,,2013-04-06 17:12:00,
2013-04-06 11:22:00,39.0,19.0,-100.00,NW,320,7.0,18.0,44,-99.99,,,-99.99,,2013-04-06 17:22:00,
2013-04-06 11:32:00,40.0,19.0,-100.00,WNW,290,7.0,16.0,43,-99.99,,,-99.99,,2013-04-06 17:32:00,
2013-04-06 11:42:00,40.0,20.0,-100.00,West,280,7.0,16.0,44,-99.99,,,-99.99,,2013-04-06 17:42:00,
2013-04-06 11:52:00,39.0,20.0,-100.00,WNW,290,7.0,14.0,45,-99.99,,,-99.99,,2013-04-06 17:52:00,
2013-04-06 12:02:00,40.0,20.0,-100.00,SW,220,7.0,15.0,44,-99.99,,,-99.99,,2013-04-06 18:02:00,
2013-04-06 12:12:00,42.0,21.0,-100.00,WSW,245,4.0,16.0,42,-99.99,,,-99.99,,2013-04-06 18:12:00,
2013-04-06 12:23:00,42.0,21.0,-100.00,SW,220,8.0,15.0,41,-99.99,,,-99.99,,2013-04-06 18:23:00,
2013-04-06 12:32:00,42.0,21.0,-100.00,SW,215,5.0,20.0,41,-99.99,,,-99.99,,2013-04-06 18:32:00,
2013-04-06 12:42:00,40.0,20.0,-100.00,North,350,7.0,13.0,43,-99.99,,,-99.99,,2013-04-06 18:42:00,
2013-04-06 12:52:00,41.0,20.0,-100.00,WSW,250,6.0,14.0,43,-99.99,,,-99.99,,2013-04-06 18:52:00,
2013-04-06 13:02:00,42.0,21.0,-100.00,SW,235,3.0,16.0,41,-99.99,,,-99.99,,2013-04-06 19:02:00,
2013-04-06 13:12:00,42.0,21.0,-100.00,SW,235,3.0,16.0,41,-99.99,,,-99.99,,2013-04-06 19:12:00,
2013-04-06 13:22:00,43.0,20.0,-100.00,WSW,255,7.0,21.0,40,-99.99,,,-99.99,,2013-04-06 19:22:00,
2013-04-06 13:32:00,43.0,20.0,-100.00,West,275,4.0,13.0,39,-99.99,,,-99.99,,2013-04-06 19:32:00,
2013-04-06 13:42:00,42.0,19.0,-100.00,WNW,285,5.0,11.0,39,-99.99,,,-99.99,,2013-04-06 19:42:00,
2013-04-06 13:52:00,44.0,20.0,-100.00,WNW,295,6.0,14.0,38,-99.99,,,-99.99,,2013-04-06 19:52:00,
2013-04-06 14:03:00,44.0,20.0,-100.00,SW,230,4.0,12.0,37,-99.99,,,-99.99,,2013-04-06 20:03:00,
2013-04-06 14:12:00,45.0,20.0,-100.00,West,265,5.0,14.0,36,-99.99,,,-99.99,,2013-04-06 20:12:00,
2013-04-06 14:22:00,45.0,18.0,-100.00,WNW,285,9.0,21.0,33,-99.99,,,-99.99,,2013-04-06 20:22:00,
2013-04-06 14:42:00,44.0,18.0,-100.00,SW,225,7.0,17.0,34,-99.99,,,-99.99,,2013-04-06 20:42:00,
2013-04-06 14:52:00,46.0,19.0,-100.00,WSW,250,5.0,21.0,33,-99.99,,,-99.99,,2013-04-06 20:52:00,
2013-04-06 15:02:00,46.0,18.0,-100.00,SW,220,6.0,16.0,33,-99.99,,,-99.99,,2013-04-06 21:02:00,
2013-04-06 15:13:00,45.0,17.0,-100.00,NNE,25,4.0,12.0,33,-99.99,,,-99.99,,2013-04-06 21:13:00,
2013-04-06 15:22:00,45.0,18.0,-100.00,South,175,6.0,16.0,33,-99.99,,,-99.99,,2013-04-06 21:22:00,
2013-04-06 15:33:00,45.0,19.0,-100.00,SW,230,4.0,12.0,33,-99.99,,,-99.99,,2013-04-06 21:33:00,
2013-04-06 15:43:00,45.0,19.0,-100.00,SW,230,4.0,12.0,33,-99.99,,,-99.99,,2013-04-06 21:43:00,
2013-04-06 15:52:00,44.0,18.0,-100.00,WNW,285,11.0,21.0,34,-99.99,,,-99.99,,2013-04-06 21:52:00,
2013-04-06 16:03:00,44.0,18.0,-100.00,West,275,7.0,20.0,34,-99.99,,,-99.99,,2013-04-06 22:03:00,
2013-04-06 16:13:00,45.0,19.0,-100.00,SW,230,6.0,17.0,33,-99.99,,,-99.99,,2013-04-06 22:13:00,
2013-04-06 16:22:00,47.0,19.0,-100.00,SW,230,6.0,16.0,33,-99.99,,,-99.99,,2013-04-06 22:22:00,
2013-04-06 16:34:00,45.0,18.0,-100.00,NW,305,5.0,17.0,33,-99.99,,,-99.99,,2013-04-06 22:34:00,
2013-04-06 16:43:00,46.0,19.0,-100.00,NW,315,4.0,14.0,33,-99.99,,,-99.99,,2013-04-06 22:43:00,
2013-04-06 16:53:00,44.0,18.0,-100.00,NW,305,12.0,25.0,34,-99.99,,,-99.99,,2013-04-06 22:53:00,
2013-04-06 17:03:00,45.0,19.0,-100.00,SW,225,5.0,20.0,34,-99.99,,,-99.99,,2013-04-06 23:03:00,
2013-04-06 17:13:00,44.0,19.0,-100.00,NW,305,5.0,19.0,36,-99.99,,,-99.99,,2013-04-06 23:13:00,
2013-04-06 17:23:00,45.0,19.0,-100.00,NW,320,11.0,21.0,35,-99.99,,,-99.99,,2013-04-06 23:23:00,
2013-04-06 17:33:00,44.0,19.0,-100.00,NNW,330,7.0,15.0,35,-99.99,,,-99.99,,2013-04-06 23:33:00,
2013-04-06 17:42:00,44.0,18.0,-100.00,NW,325,7.0,16.0,35,-99.99,,,-99.99,,2013-04-06 23:42:00,
2013-04-06 17:52:00,43.0,18.0,-100.00,NW,320,6.0,12.0,36,-99.99,,,-99.99,,2013-04-06 23:52:00,
2013-04-06 18:02:00,43.0,19.0,-100.00,WNW,300,3.0,13.0,36,-99.99,,,-99.99,,2013-04-07 00:02:00,
2013-04-06 18:12:00,43.0,18.0,-100.00,NW,325,6.0,11.0,36,-99.99,,,-99.99,,2013-04-07 00:12:00,
2013-04-06 18:22:00,42.0,18.0,-100.00,NW,325,6.0,9.0,36,-99.99,,,-99.99,,2013-04-07 00:22:00,
2013-04-06 18:32:00,42.0,18.0,-100.00,NNW,330,4.0,12.0,37,-99.99,,,-99.99,,2013-04-07 00:32:00,
2013-04-06 18:42:00,42.0,18.0,-100.00,NE,40,3.0,14.0,37,-99.99,,,-99.99,,2013-04-07 00:42:00,
2013-04-06 18:52:00,42.0,19.0,-100.00,NW,310,7.0,14.0,38,-99.99,,,-99.99,,2013-04-07 00:52:00,
2013-04-06 19:02:00,41.0,19.0,-100.00,WNW,295,4.0,10.0,40,-99.99,,,-99.99,,2013-04-07 01:02:00,
2013-04-06 19:12:00,41.0,19.0,-100.00,NNW,345,2.0,9.0,41,-99.99,,,-99.99,,2013-04-07 01:12:00,
2013-04-06 19:22:00,40.0,20.0,-100.00,NW,325,4.0,7.0,42,-99.99,,,-99.99,,2013-04-07 01:22:00,
2013-04-06 19:32:00,40.0,20.0,-100.00,NNW,335,2.0,4.0,43,-99.99,,,-99.99,,2013-04-07 01:32:00,
2013-04-06 19:42:00,40.0,20.0,-100.00,NNW,345,2.0,9.0,44,-99.99,,,-99.99,,2013-04-07 01:42:00,
2013-04-06 19:52:00,40.0,20.0,-100.00,NNW,335,2.0,6.0,44,-99.99,,,-99.99,,2013-04-07 01:52:00,
2013-04-06 20:02:00,40.0,20.0,-100.00,WNW,295,5.0,10.0,45,-99.99,,,-99.99,,2013-04-07 02:02:00,
2013-04-06 20:12:00,39.0,21.0,-100.00,NNW,340,7.0,12.0,46,-99.99,,,-99.99,,2013-04-07 02:12:00,
2013-04-06 20:23:00,39.0,21.0,-100.00,NNW,340,2.0,9.0,48,-99.99,,,-99.99,,2013-04-07 02:23:00,
2013-04-06 20:32:00,38.0,21.0,-100.00,SSW,200,2.0,4.0,51,-99.99,,,-99.99,,2013-04-07 02:32:00,
2013-04-06 20:42:00,37.0,21.0,-100.00,SW,225,2.0,6.0,51,-99.99,,,-99.99,,2013-04-07 02:42:00,
2013-04-06 20:52:00,38.0,21.0,-100.00,SSW,195,4.0,9.0,50,-99.99,,,-99.99,,2013-04-07 02:52:00,
2013-04-06 21:02:00,38.0,21.0,-100.00,SW,230,1.0,9.0,49,-99.99,,,-99.99,,2013-04-07 03:02:00,
2013-04-06 21:12:00,38.0,21.0,-100.00,SW,225,4.0,6.0,49,-99.99,,,-99.99,,2013-04-07 03:12:00,
2013-04-06 21:22:00,38.0,21.0,-100.00,SSW,205,2.0,5.0,49,-99.99,,,-99.99,,2013-04-07 03:22:00,
2013-04-06 21:33:00,37.0,21.0,-100.00,SW,235,3.0,5.0,51,-99.99,,,-99.99,,2013-04-07 03:33:00,
2013-04-06 21:43:00,36.0,21.0,-100.00,South,185,1.0,5.0,53,-99.99,,,-99.99,,2013-04-07 03:43:00,
2013-04-06 21:53:00,36.0,21.0,-100.00,SW,220,1.0,4.0,55,-99.99,,,-99.99,,2013-04-07 03:53:00,
2013-04-06 22:03:00,36.0,22.0,-100.00,SW,220,1.0,5.0,57,-99.99,,,-99.99,,2013-04-07 04:03:00,
2013-04-06 22:13:00,36.0,22.0,-100.00,South,170,2.0,6.0,58,-99.99,,,-99.99,,2013-04-07 04:13:00,
2013-04-06 22:23:00,36.0,23.0,-100.00,SSW,195,2.0,6.0,59,-99.99,,,-99.99,,2013-04-07 04:23:00,
2013-04-06 22:30:00,36.0,24.0,-100.00,WSW,245,3.0,7.0,59,-99.99,,,-99.99,,2013-04-07 04:30:00,
2013-04-06 22:32:00,36.0,23.0,-100.00,SSW,195,2.0,6.0,59,-99.99,,,-99.99,,2013-04-07 04:32:00,
2013-04-06 22:43:00,36.0,24.0,-100.00,WSW,245,3.0,7.0,59,-99.99,,,-99.99,,2013-04-07 04:43:00,
2013-04-06 22:52:00,36.0,24.0,-100.00,WSW,245,3.0,7.0,59,-99.99,,,-99.99,,2013-04-07 04:52:00,
2013-04-06 23:02:00,36.0,24.0,-100.00,WSW,245,3.0,7.0,59,-99.99,,,-99.99,,2013-04-07 05:02:00,
2013-04-06 23:12:00,36.0,24.0,-100.00,WSW,245,3.0,7.0,59,-99.99,,,-99.99,,2013-04-07 05:12:00,
2013-04-06 23:22:00,36.0,24.0,-100.00,WSW,245,3.0,7.0,59,-99.99,,,-99.99,,2013-04-07 05:22:00,